GW0274 Weather Reports


time (UTC)temp
C
wind
direction
speed
KPH
gust
KPH
rain 1hr
cm
rain 24hr
cm
rain mn
cm
humidity
%
barometer
mb
20260508033053 8 0 0.0 0.0 0.00 0.00 0.00 96 1002.1
20260508031549 8 0 0.0 0.0 0.00 0.00 0.00 96 1002.0
20260508030049 8 0 0.0 0.0 0.00 0.00 0.00 96 1001.8
20260508024552 8 0 0.0 0.0 0.00 0.00 0.00 96 1001.9
20260508023048 8 0 0.0 0.0 0.00 0.00 0.00 95 1001.9
20260508021554 7 0 0.0 0.0 0.00 0.00 0.00 96 1002.3
20260508020105 8 0 0.0 0.0 0.00 0.00 0.00 96 1002.3
20260508014550 7 0 0.0 0.0 0.00 0.00 0.00 95 1002.5
20260508013046 7 0 0.0 0.0 0.00 0.00 0.00 95 1002.6
20260508011553 7 0 0.0 0.0 0.00 0.00 0.00 94 1002.2
20260508010116 7 0 0.0 0.0 0.00 0.00 0.00 95 1002.2
20260508004556 7 0 0.0 0.0 0.00 0.00 0.00 94 1002.2
20260508003101 8 0 0.0 0.0 0.00 0.00 0.00 94 1002.3
20260508001553 8 0 0.0 0.0 0.00 0.00 0.00 94 1002.4
20260508000054 8 0 0.0 0.0 0.00 0.00 0.00 93 1002.5
20260507234555 7 0 0.0 0.0 0.00 0.00 0.00 92 1002.3
20260507233050 8 0 0.0 0.0 0.00 0.00 0.00 91 1002.1
20260507231556 10 0 0.0 3.2 0.00 0.00 0.00 88 1001.9
20260507230109 12 0 0.0 0.0 0.00 0.00 0.00 87 1000.9
20260507224553 12 0 0.0 1.6 0.00 0.00 0.00 86 1000.8
20260507223157 12 0 0.0 4.8 0.00 0.00 0.00 86 1000.8
20260507221552 12 0 0.0 12.9 0.00 0.00 0.00 86 1001.0
20260507220053 12 0 0.0 14.5 0.00 0.00 0.00 87 1000.8
20260507214559 12 0 0.0 8.0 0.00 0.00 0.00 88 1000.8
20260507213107 12 0 0.0 1.6 0.00 0.00 0.00 88 1000.7
20260507211555 12 0 0.0 12.9 0.00 0.00 0.00 88 1000.7
20260507204551 12 0 1.6 16.1 0.00 0.00 0.00 90 1000.9
20260507203054 12 0 0.0 17.7 0.00 0.00 0.00 91 1000.2
20260507201603 12 91 0.0 20.9 0.00 0.00 0.00 92 1000.2
20260507200105 12 0 0.0 16.1 0.00 0.00 0.00 92 1000.0
20260507194549 12 0 0.0 22.5 0.00 0.00 0.00 92 1001.2
20260507193049 12 160 0.0 12.9 0.00 0.00 0.00 91 1002.1
20260507191547 12 0 0.0 4.8 0.00 0.00 0.00 90 1002.8
20260507190052 12 0 0.0 1.6 0.00 0.00 0.00 92 1002.8
20260507184548 12 0 0.0 16.1 0.00 0.00 0.00 91 1003.1
20260507183057 12 0 0.0 1.6 0.00 0.00 0.00 91 1003.0
20260507181554 13 0 0.0 14.5 0.00 0.00 0.00 91 1003.5
20260507180055 13 0 1.6 16.1 0.00 0.00 0.00 91 1003.6
20260507174557 13 172 0.0 25.7 0.00 0.00 0.00 90 1003.7
20260507173101 14 0 0.0 19.3 0.00 0.00 0.00 88 1003.0
20260507171600 14 90 0.0 25.7 0.00 0.00 0.00 88 1002.3
20260507170053 15 0 0.0 11.3 0.00 0.00 0.00 86 1002.3
20260507164553 15 119 0.0 16.1 0.00 0.00 0.00 81 1002.4
20260507163052 16 0 0.0 16.1 0.00 0.00 0.00 77 1002.4
20260507161602 16 0 4.8 30.6 0.00 0.00 0.00 77 1003.0
20260507160049 16 0 3.2 27.4 0.00 0.00 0.00 76 1002.7
20260507154552 16 50 9.7 41.8 0.00 0.00 0.00 75 1003.0
20260507153110 16 124 9.7 41.8 0.00 0.00 0.00 73 1003.9
20260507151556 17 0 1.6 24.1 0.00 0.00 0.00 74 1004.2
20260507150054 16 234 4.8 35.4 0.00 0.00 0.00 75 1004.5
20260507144552 17 160 4.8 33.8 0.00 0.00 0.00 74 1004.6
20260507143054 17 109 1.6 17.7 0.00 0.00 0.00 75 1004.7
20260507141555 16 189 4.8 25.7 0.00 0.00 0.00 77 1005.1
20260507140058 16 0 1.6 30.6 0.00 0.00 0.00 77 1005.1
20260507134552 16 169 3.2 25.7 0.00 0.00 0.00 75 1005.8
20260507133054 16 0 3.2 30.6 0.00 0.00 0.00 78 1005.4
20260507131552 16 0 1.6 22.5 0.00 0.00 0.00 78 1005.5
20260507130109 17 190 1.6 25.7 0.00 0.00 0.00 76 1005.8
20260507124607 16 160 1.6 17.7 0.00 0.00 0.00 79 1005.9
20260507123104 16 0 0.0 14.5 0.00 0.00 0.00 80 1006.3
20260507121600 16 0 1.6 17.7 0.00 0.00 0.00 81 1006.5
20260507120057 16 0 0.0 19.3 0.00 0.00 0.00 81 1006.7
20260507114553 15 0 1.6 19.3 0.00 0.00 0.00 82 1007.2
20260507113049 15 0 1.6 27.4 0.00 0.00 0.00 82 1007.4
20260507111549 16 113 1.6 33.8 0.00 0.00 0.00 80 1007.6
20260507110059 15 0 3.2 20.9 0.00 0.00 0.00 81 1007.5
20260507104556 15 118 4.8 25.7 0.00 0.00 0.00 81 1007.7
20260507103051 15 0 8.0 25.7 0.00 0.00 0.00 81 1007.9
20260507101557 15 0 3.2 27.4 0.00 0.00 0.00 81 1008.0
20260507100058 15 99 12.9 38.6 0.00 0.00 0.00 81 1008.1
20260507094551 15 96 4.8 33.8 0.00 0.00 0.00 81 1008.3
20260507093053 15 0 4.8 25.7 0.00 0.00 0.00 81 1008.8
20260507091550 15 0 1.6 16.1 0.00 0.00 0.00 82 1009.3
20260507090050 15 0 0.0 17.7 0.00 0.00 0.00 82 1009.2
20260507084550 15 170 0.0 14.5 0.00 0.00 0.00 82 1009.0
20260507083106 15 0 0.0 30.6 0.00 0.00 0.00 81 1009.5
20260507081557 15 0 0.0 14.5 0.00 0.00 0.00 82 1008.7
20260507080053 15 188 0.0 14.5 0.00 0.00 0.00 82 1009.6
20260507074554 15 0 0.0 4.8 0.00 0.00 0.00 81 1010.1
20260507073054 15 0 0.0 22.5 0.00 0.00 0.00 81 1010.6
20260507071551 14 0 0.0 12.9 0.00 0.00 0.00 81 1011.2
20260507070048 15 0 0.0 12.9 0.00 0.00 0.00 80 1010.7
20260507064549 14 0 3.2 25.7 0.00 0.00 0.00 79 1011.4
20260507063050 15 115 3.2 17.7 0.00 0.00 0.00 79 1011.0
20260507061550 15 93 1.6 16.1 0.00 0.00 0.00 78 1011.4
20260507060057 15 100 3.2 25.7 0.00 0.00 0.00 76 1011.5
20260507054553 14 0 0.0 16.1 0.00 0.00 0.00 74 1011.7
20260507053051 15 111 3.2 20.9 0.00 0.00 0.00 70 1012.3
20260507051550 15 0 1.6 25.7 0.00 0.00 0.00 69 1012.6
20260507050049 15 0 9.7 25.7 0.00 0.00 0.00 72 1012.8
20260507044550 15 106 0.0 12.9 0.00 0.00 0.00 74 1013.2
20260507043046 15 0 0.0 17.7 0.00 0.00 0.00 73 1013.6
20260507041555 15 0 0.0 17.7 0.00 0.00 0.00 73 1014.0
20260507040052 15 0 1.6 19.3 0.00 0.00 0.00 72 1014.4
20260507034556 15 93 3.2 29.0 0.00 0.00 0.00 73 1014.5